Change the Weather History Date:

Monday, February 3, 2014

  Actual Average Record
Temperature  
Mean Temperature 18 °F -  
Max Temperature 35 °F 32 °F 64 °F (1992)
Min Temperature 1 °F 10 °F -16 °F (1989)
Degree Days  
Heating Degree Days 47    
Moisture  
Dew Point 7 °F    
Average Humidity 61    
Maximum Humidity 80    
Minimum Humidity 40    
Precipitation  
Precipitation 0.00 in - - ()
Sea Level Pressure  
Sea Level Pressure 30.26 in    
Wind  
Wind Speed 9 mph (SSE)    
Max Wind Speed 14 mph    
Max Gust Speed -    
Visibility 10 miles    
Events      
Averages and records for this station are not official NWS values.
T = Trace of Precipitation, MM = Missing Value Source: NWS Daily Summary

Daily Weather History Graph

Daily Weather History Graph

Search for Another Location

Airport or City:

Trip Planner

Search our weather history database for the weather conditions in past years. The results will help you decide how hot, cold, wet, or windy it might be!

Date:

Astronomy

Feb. 03, 2014 Rise Set
Actual Time 7:34 AM CST 5:42 PM CST
Civil Twilight 7:05 AM CST 6:12 PM CST
Nautical Twilight 6:32 AM CST 6:45 PM CST
Astronomical Twilight 5:59 AM CST 7:17 PM CST
Moon 9:33 AM CST (2/3) 10:39 PM CST (2/3)
Length of Visible Light 11h 06m
Length of Day
10h 07m
Waxing Crescent, 20% of the Moon is Illuminated
Feb 3
Waxing Crescent
Feb 6
First Quarter
Feb 14
Full
Feb 22
Last Quarter
Mar 1
New

Hourly Weather History & Observations

Time (CST) Temp. Windchill Dew Point Humidity Pressure Visibility Wind Dir Wind Speed Gust Speed Precip Events Conditions
12:54 AM 9.0 °F -4.2 °F 1.9 °F 73% 30.27 in 10.0 mi SE 9.2 mph - N/A   Clear
1:54 AM 6.1 °F -7.8 °F -0.0 °F 76% 30.27 in 10.0 mi SE 9.2 mph - N/A   Clear
2:54 AM 6.1 °F -9.5 °F 1.0 °F 80% 30.26 in 10.0 mi SSE 11.5 mph - N/A   Clear
3:54 AM 6.1 °F -8.7 °F -0.0 °F 76% 30.25 in 10.0 mi SSE 10.4 mph - N/A   Clear
4:54 AM 3.9 °F -9.4 °F -2.0 °F 76% 30.25 in 10.0 mi SE 8.1 mph - N/A   Clear
5:54 AM 3.9 °F -8.2 °F -0.9 °F 80% 30.27 in 10.0 mi SE 6.9 mph - N/A   Clear
6:54 AM 3.0 °F -11.5 °F -2.0 °F 80% 30.27 in 10.0 mi SE 9.2 mph - N/A   Clear
7:54 AM 1.0 °F -11.7 °F -5.1 °F 75% 30.29 in 9.0 mi South 6.9 mph - N/A   Clear
8:54 AM 12.0 °F 2.7 °F 6.1 °F 77% 30.30 in 10.0 mi South 5.8 mph - N/A   Clear
9:54 AM 19.0 °F 10.0 °F 9.0 °F 65% 30.28 in 10.0 mi South 6.9 mph - N/A   Clear
10:54 AM 23.0 °F 13.9 °F 10.9 °F 60% 30.29 in 10.0 mi SW 8.1 mph - N/A   Clear
11:54 AM 28.0 °F 19.3 °F 12.9 °F 53% 30.27 in 10.0 mi SSW 9.2 mph - N/A   Mostly Cloudy
12:54 PM 30.9 °F 20.7 °F 12.0 °F 46% 30.25 in 10.0 mi SSW 13.8 mph - N/A   Overcast
1:54 PM 33.1 °F 26.1 °F 12.0 °F 42% 30.22 in 10.0 mi SSW 8.1 mph - N/A   Overcast
2:54 PM 35.1 °F 27.4 °F 12.9 °F 40% 30.23 in 10.0 mi South 10.4 mph - N/A   Overcast
3:54 PM 34.0 °F 25.5 °F 12.9 °F 42% 30.22 in 10.0 mi South 11.5 mph - N/A   Overcast
4:54 PM 33.1 °F 24.9 °F 12.0 °F 42% 30.23 in 10.0 mi South 10.4 mph - N/A   Overcast
5:54 PM 30.9 °F 21.7 °F 12.9 °F 47% 30.22 in 10.0 mi SE 11.5 mph - N/A   Overcast
6:54 PM 28.9 °F 19.2 °F 12.9 °F 51% 30.24 in 10.0 mi SE 11.5 mph - N/A   Overcast
7:54 PM 28.0 °F 18.6 °F 12.9 °F 53% 30.25 in 10.0 mi SE 10.4 mph - N/A   Overcast
8:54 PM 27.0 °F 18.0 °F 12.0 °F 53% 30.26 in 10.0 mi SE 9.2 mph - N/A   Overcast
9:54 PM 26.1 °F 16.8 °F 12.9 °F 58% 30.27 in 10.0 mi SE 9.2 mph - N/A   Overcast
10:54 PM 26.1 °F 15.6 °F 10.9 °F 53% 30.29 in 10.0 mi SSE 11.5 mph - N/A   Overcast
11:54 PM 24.1 °F 19.7 °F 10.0 °F 55% 30.29 in 10.0 mi ESE 3.5 mph - N/A   Overcast